Location: Mason-Dixon Star Party
(40.0361°N, 76.9958°W)
Time: 03:54:47
(UTC-05:00)

Daily predictions for brighter satellites

Satellite Brightness Start Highest point End
(mag) Time Altitude Azimuth Time Altitude Azimuth Time Altitude Azimuth
ATLAS 5 CENTAUR R/B 4.2 03:28:12 19° NE 03:28:12 19° NE 03:29:38 10° NE
Cosmos 1943 Rocket 3.8 03:33:34 30° NE 03:33:34 30° NE 03:36:23 10° NNE
ADEOS II 3.2 03:43:48 10° NNE 03:47:40 41° ENE 03:47:40 41° ENE
CZ-4B R/B 3.9 03:45:29 10° NNE 03:50:12 52° ENE 03:50:12 52° ENE
Lacrosse 5 rocket 4.1 04:08:34 11° NNE 04:08:34 11° NNE 04:09:11 10° NE
Okean-O 4.5 04:04:33 10° NE 04:08:24 29° E 04:10:30 20° SE
Lacrosse 5 3.0 04:16:33 35° N 04:16:33 35° N 04:19:54 10° NE
ATLAS CENTAUR R/B 3.6 04:21:01 56° WSW 04:21:30 57° SW 04:37:06 10° SSE
CZ-4C R/B 2.0 04:27:47 78° SSW 04:28:09 86° ESE 04:34:04 10° NE
Cosmos 1656 Rocket 3.6 04:30:11 59° SSW 04:31:19 86° ESE 04:37:01 10° NNE
Cosmos 1954 Rocket 3.9 04:30:13 16° NNW 04:34:36 87° ENE 04:39:56 10° SSE
PAYLOAD B 4.5 04:30:13 10° N 04:34:53 50° NW 04:34:53 50° NW
GEOS 3 Rocket 3.5 04:32:28 10° SE 04:37:34 86° NE 04:39:30 40° NNW
Meteor 1-26 Rocket 4.1 04:36:08 42° SSW 04:38:10 83° W 04:43:47 10° N
Cosmos 2369 Rocket 3.9 04:41:22 18° NNW 04:41:22 18° NNW 04:43:46 10° N
CZ-4B DEB 4.3 04:34:37 10° N 04:39:46 54° WNW 04:39:46 54° WNW
Cosmos 2219 3.6 04:35:20 10° NNW 04:40:59 64° ENE 04:46:34 10° SSE
Cosmos 1420 Rocket 4.1 04:38:54 32° S 04:41:18 73° ESE 04:46:29 10° NNE
USA 234 3.2 04:35:39 10° NE 04:42:12 84° SE 04:45:09 36° SW
Cosmos 1553 Rocket 4.3 04:36:15 10° S 04:42:23 69° E 04:48:39 10° NNE
Cosmos 2227 Rocket 4.5 04:38:49 10° N 04:43:16 23° NE 04:47:41 10° ESE
Okean O Rocket 3.8 04:41:11 10° N 04:41:51 14° NNW 04:41:51 14° NNW
Meteor 1-31 Rocket 2.7 04:45:45 10° NNE 04:49:39 81° ESE 04:50:11 64° S
COSMO-SKYMED 1 4.2 04:45:51 10° SE 04:49:46 34° ENE 04:53:43 10° N
Meteor 2-10 Rocket 3.4 04:54:31 50° WSW 04:55:20 57° WNW 05:00:21 10° N
ATLAS 3B R/B 3.3 04:53:20 10° SSW 05:00:48 63° ESE 05:08:02 10° NE
Okean 1-7 2.8 05:00:19 47° SW 05:01:22 65° W 05:05:37 10° N
Cosmos 1023 Rocket 4.4 04:56:39 10° NNW 05:01:53 70° WSW 05:07:07 10° S
Cosmos 2221 Rocket 3.7 05:01:45 47° WSW 05:02:33 54° W 05:07:02 10° N
ERS-2 4.0 05:02:37 10° N 05:03:55 19° NNW 05:03:55 19° NNW
Cosmos 1452 Rocket 4.0 05:07:57 36° W 05:08:47 39° WNW 05:13:44 10° N
Thor Agena Rocket 3.4 05:03:50 10° S 05:09:03 75° WSW 05:14:12 10° NNW
ATLAS 5 CENTAUR R/B 3.6 05:09:45 17° NW 05:09:57 17° NW 05:13:22 10° N
Meteor 1-10 Rocket 4.4 05:07:11 10° S 05:12:43 72° E 05:18:22 10° NNE
Cosmos 1943 Rocket 3.5 05:15:07 21° NW 05:15:07 21° NW 05:19:13 10° N
Cosmos 1741 Rocket 3.9 05:16:31 10° NNW 05:21:46 77° WSW 05:27:01 10° SSE
Cosmos 1932 4.5 05:15:43 10° SSW 05:22:04 85° WNW 05:28:36 10° NNE
Feng Yun 1-1 Rocket 4.4 05:16:28 10° N 05:22:15 57° WNW 05:28:01 10° SSW
Radarsat Rocket 4.3 05:17:59 10° NNE 05:25:09 84° ESE 05:31:26 10° SSW
Cosmos 1782 Rocket 4.2 05:21:22 10° NNW 05:25:20 32° W 05:29:15 10° SSW
ADEOS II 3.3 05:24:24 10° NNW 05:28:16 21° WNW 05:28:37 21° WNW
Meteor 1-28 Rocket 3.5 05:26:16 10° SSE 05:29:57 68° ENE 05:33:41 10° N
CZ-4B R/B 4.5 05:27:05 10° NNW 05:31:08 21° WNW 05:32:07 20° WNW
Cosmos 1745 Rocket 3.9 05:27:15 10° NNW 05:33:16 59° W 05:39:15 10° S
Cosmos 1386 Rocket 4.4 05:27:14 10° N 05:33:18 79° W 05:39:27 10° S
Cosmos 1140 Rocket 4.0 05:28:42 10° NW 05:33:25 35° W 05:38:08 10° SSW
Cosmos 614 Rocket 4.2 05:30:45 10° NNW 05:35:34 44° WSW 05:40:25 10° S
SKYMED 2 3.5 05:33:24 10° S 05:37:42 68° WSW 05:42:03 10° NNW
Cosmos 883 Rocket 4.5 05:35:47 10° S 05:42:06 82° W 05:48:30 10° N
Meteor 1-20 Rocket 4.4 05:38:12 10° NNW 05:43:36 46° W 05:48:53 10° SSW
Okean-O 3.7 05:41:09 10° NNW 05:44:47 25° WNW 05:48:07 11° WSW
Cosmos 2082 4.3 05:39:57 10° NNW 05:45:33 59° ENE 05:51:06 10° SE
Meteor 1-27 Rocket 3.9 05:41:25 10° S 05:47:12 84° E 05:53:07 10° N
Lacrosse 5 rocket 1.7 05:44:47 10° NW 05:48:19 53° NE 05:51:51 10° ESE
Cosmos 1674 Rocket 3.5 05:43:59 10° S 05:48:23 86° W 05:52:51 10° N
USA 81 4.2 05:44:09 10° SSW 05:49:14 49° W 05:54:23 10° N
Tiangong 1 1.5 05:48:10 19° WNW 05:50:01 46° N 05:52:51 10° ENE
Cosmos 1606 3.3 05:52:22 10° SW 05:55:57 36° WNW 05:59:35 10° N
Okean 2 Rocket 4.3 05:53:35 10° NW 05:56:46 20° W 05:59:56 10° SW
Lacrosse 5 3.8 05:56:08 10° NW 05:59:05 15° NNW 06:02:04 10° NNE
Cosmos 1602 3.7 05:55:49 10° N 05:59:47 75° W 06:03:43 10° S
Cosmos 2369 3.7 05:54:57 10° SSW 06:00:35 90° ESE 06:06:17 10° NNE
PAYLOAD A 4.1 05:57:27 10° NNE 06:02:13 78° ESE 06:07:07 10° S
Cosmos 1607 4.1 05:56:42 10° SW 06:02:38 51° NW 06:08:39 10° NNE
Cosmos 1782 4.0 06:01:52 10° SW 06:05:00 22° WNW 06:08:11 10° NNW
Delta 2 Rocket 4.3 06:00:43 10° WSW 06:05:19 52° S 06:10:34 10° ESE
Cosmos 2297 Rocket 2.4 06:01:36 10° NNW 06:07:17 78° ENE 06:12:55 10° SSE
Okean 1 Rocket 3.0 06:06:19 10° N 06:10:44 86° W 06:15:05 10° S
SMAP 4.2 06:08:13 10° NNE 06:12:45 50° E 06:17:15 10° S
CSL-04 Debris 4.2 06:08:08 10° NNE 06:13:34 86° WNW 06:18:57 10° SSW
Cosmos 2278 3.7 06:11:05 10° SSW 06:16:40 64° WNW 06:22:18 10° NNE
ISS -0.4 06:14:24 10° S 06:16:45 18° SE 06:19:07 10° E
Gblst 52 Del rocket 4.4 06:11:22 10° WSW 06:17:07 72° NNW 06:23:40 10° NE
CZ-4C R/B 3.7 06:13:35 10° W 06:17:34 20° NW 06:21:56 10° NNE
Ariane Rocket 3.1 06:13:32 10° N 06:18:31 56° WNW 06:23:26 10° SSW
